Home > Weather > Wolfsberg > Past weeks

Flag for Austria Past Weather in Wolfsberg, Carinthia, Austria — Yesterday and Last 2 Weeks

Now
75 °F

Scattered clouds.


Feels Like: 78 °F
Forecast: 58 / 85 °F
Wind: 3 mph from North

Location: Zeltweg

Current Time: Jul 29, 2016 at 2:13:45 PM

Latest Report: Jul 29, 2016 at 12:50 PM


Visibility: 25 mi

Pressure: 30.04 "Hg

Humidity: 47%

Dew Point: 54 °F

Location of WolfsbergLocation

Past Weather in Wolfsberg — Graph

°F

Wolfsberg Temperature Yesterday

Maximum temperature yesterday: 73 °F (at 1:50 PM)
Minimum temperature yesterday: 61 °F (at 4:50 AM)
Average temperature yesterday: 67 °F

High & Low Weather Summary for the Past Weeks

 TemperatureHumidityPressure
High82 °F (Jul 20, 2:50 PM)100% (Jul 25, 4:50 AM)30.24 "Hg (Jul 25, 4:50 AM)
Low43 °F (Jul 15, 5:50 AM)32% (Jul 20, 3:50 PM)29.89 "Hg (Jul 14, 12:20 PM)
Average67 °F64%30.11 "Hg
* Reported Jul 14 12:20 PM — Jul 29 12:50 PM, Wolfsberg, Weather by CustomWeather, © 2016

Note: Actual official high and low records may vary slightly from our data, if they occured in-between our weather recording intervals... More about our weather records

Advertising

Wolfsberg Weather History for the Previous 24 Hours

Scroll right to see more
 ConditionsComfort  
Time TempWeatherWind HumidityBarometerVisibility
12:50 PM
Fri, Jul 29
75 °FScattered clouds.3 mph47%30.04 "Hg25 mi
11:50 AM73 °FPassing clouds.2 mph50%30.07 "Hg25 mi
10:50 AM70 °FPassing clouds.2 mph60%30.07 "Hg25 mi
9:50 AM66 °FScattered clouds.2 mph73%30.09 "Hg25 mi
8:50 AM63 °FScattered clouds.1 mph83%30.09 "Hg25 mi
7:50 AM59 °FPartly sunny.1 mph88%30.09 "Hg25 mi
6:50 AM57 °FPartly sunny.3 mph94%30.09 "Hg12 mi
5:50 AM59 °FPassing clouds.1 mph82%30.09 "Hg12 mi
4:50 AM59 °FMostly cloudy.2 mph94%30.07 "Hg9 mi
10:50 PM
Thu, Jul 28
63 °FSprinkles. Overcast.3 mph88%30.09 "Hg9 mi
9:50 PM63 °FOvercast.5 mph88%30.09 "Hg9 mi
8:50 PM66 °FSprinkles. Overcast.6 mph83%30.07 "Hg12 mi
7:50 PM68 °FOvercast.3 mph73%30.07 "Hg12 mi
6:50 PM70 °FBroken clouds.6 mph64%30.07 "Hg12 mi
5:50 PM72 °FBroken clouds.8 mph61%30.04 "Hg12 mi
4:50 PM70 °FPartly sunny.7 mph69%30.07 "Hg12 mi
3:50 PM72 °FSprinkles. Partly sunny.8 mph61%30.07 "Hg12 mi
2:50 PM73 °FPartly sunny.7 mph50%30.07 "Hg16 mi
Weather by CustomWeather, © 2016

See weather overviewHow to use our weather pages